Погода в Докукине

Россия / Нижегородская область     56°43′42″N   45°42′01″E
темп.,
°C
ветер,
м/с
пор.,
м/с
влажн.,
%
обл.,
%
осадки,
мм/ч
давл.,
гПа
погр.,
м
14 мая, пт
пт1400:00+14ююв28945 0.5 1019200
03:00+13ю229738 0.8 101938
06:00+16ююв0092100 0.0 101999
09:00+20в1177100 0.0 1019501
12:00+23ююв2262100 0.0 10181142
15:00+23ююз2360100 0.6 10171282
18:00+21юз24794 1.5 1017213
21:00+17ю1191100 1.5 101711
15 мая, сб
сб1500:00+16ююв2293100 0.0 101723
03:00+15юв2695100 0.0 1016112
06:00+16вюв2794100 1.3 1016188
09:00+22ююв3571100 1.3 1015431
12:00+26ю5848100 0.0 1014994
15:00+26ю51144100 0.0 10141247
18:00+23ююз613480 0.0 10131062
21:00+18ю311752 0.0 1014273
16 мая, вс
вс1600:00+15ююз22897 0.0 101417
03:00+14ю239146 0.0 101453
06:00+17ююз248162 0.0 1014179
09:00+22ююз3664100 0.0 1014787
12:00+25юз484899 0.0 10141661
15:00+25юз5114699 0.0 10152030
18:00+19ююз39753 0.1 1014435
21:00+15ююз27930 0.1 1015138
17 мая, пн
пн1700:00+14юз24934 0.0 101670
03:00+13юз229594 0.0 101731
06:00+16юз1280100 0.0 101798
09:00+22юз1356100 0.0 1018642
12:00+26юз244326 0.0 10171648
15:00+27юз23396 0.0 10161792
18:00+25ю115995 0.0 101623
21:00+19юв1178100 0.0 101611
18 мая, вт
вт1800:00+18юв228326 0.0 101629
03:00+15ююв22915 0.0 101611
06:00+18ююв257221 0.0 1016122
09:00+25ююв34425 0.0 1016503
12:00+29юв46311 0.0 10152168
15:00+29ю462523 0.0 10143072
18:00+25ююв24487 0.0 101498
21:00+19юв24625 0.0 101454